Regional Weather Roundup
Issued by NWS Cleveland, OH

Home | Current Version | Previous Version | Text Only | Print | Product List | Glossary Off
Versions: 1 2 3 4 5 6 7 8 9 10 11 12 13 14 15 16 17 18 19 20 21 22 23 24 25 26 27 28 29 30 31 32 33 34 35 36 37 38 39 40 41 42 43 44 45 46 47 48 49 50

000
ASUS41 KCLE 011310
RWRCLE
OHIO REGIONAL WEATHER ROUNDUP
NATIONAL WEATHER SERVICE CLEVELAND, OH
900 AM EDT WED APR 01 2015

NOTE: "FAIR" INDICATES FEW OR NO CLOUDS BELOW 12,000 FEET WITH NO
SIGNIFICANT WEATHER AND/OR OBSTRUCTIONS TO VISIBILITY.

OHZ001>008-015>018-024>027-034-035-043-044-011400-
   NORTHWEST OHIO

CITY           SKY/WX    TMP DP  RH WIND       PRES   REMARKS
DEFIANCE       SUNNY     36  33  89 CALM      30.09R FOG
FINDLAY        SUNNY     36  32  85 S8        30.08R
TOLEDO EXPRESS SUNNY     34  31  88 CALM      30.09R FOG
TOLEDO EXEC    SUNNY     34  30  85 SW3       30.11R
LIMA           SUNNY     38  32  79 S10       30.08R
$$

OHZ009>014-019>023-028>033-038-089-011400-
   NORTHEAST OHIO

CITY           SKY/WX    TMP DP  RH WIND       PRES   REMARKS
CLE-HOPKINS    MOSUNNY   36  31  82 S5        30.12R
CLE-LAKEFRONT  MOSUNNY   38  31  76 S5        30.09R
CUY CO. ARPT   PTSUNNY   37  32  81 S5        30.10R
LORAIN-ELYRIA  PTSUNNY   34  30  85 SW5       30.10R WCI  30
ASHTABULA      CLOUDY    33  29  85 SE3       30.10R
AKRON-CANTON   MOSUNNY   34  29  82 SW7       30.09R HAZE    WCI  28
WOOSTER        SUNNY     34  30  85 SW7       30.10R WCI  28
MANSFIELD      SUNNY     37  31  78 S9        30.08R
YOUNGSTOWN     PTSUNNY   32  27  81 S3        30.09R
$$

OHZ042-051>053-060>062-070>072-077>081-011400-
  SOUTHWEST OHIO

CITY           SKY/WX    TMP DP  RH WIND       PRES   REMARKS
CINC-COVINGTON SUNNY     40  34  79 S6        30.13R
CINC-LUNKEN    SUNNY     36  35  96 CALM      30.15R
HAMILTON       SUNNY     38  35  89 CALM      30.14R
DAYTON         SUNNY     40  34  79 S12       30.11R
WRIGHT-PAT AFB SUNNY     38  34  86 SW3       30.12R
DAYTON GENERAL SUNNY     38  34  85 S9        30.11R
WILMINGTON     SUNNY     38  32  79 S10       30.11R
$$

OHZ036-037-039>041-045>050-054>059-063>069-073>076-082>088-011400-
  CENTRAL AND SOUTHEAST OHIO

CITY           SKY/WX    TMP DP  RH WIND       PRES   REMARKS
COLUMBUS       SUNNY     35  32  88 SE3       30.12R
OSU AIRPORT    SUNNY     37  32  82 S7        30.11R
BOLTON FIELD   SUNNY     36  36 100 SE6       30.12R FOG
RICKENBACK AFB SUNNY     33  31  95 S5        30.13R FOG     WCI  28
NEWARK         SUNNY     34  30  85 CALM      30.12R
MARION         SUNNY     35  32  88 S10       30.10R FOG     WCI  27
LANCASTER      SUNNY     34  31  88 CALM      30.13R
ZANESVILLE     SUNNY     31  28  89 SW3       30.13R
NEW PHILLY     SUNNY     32  27  81 SE5       30.12R HAZE    WCI  27
$$



USA.gov is the U.S. government's official web portal to all federal, state and local government web resources and services.